EW4561 Weather Reports


Display with metric or nautical units.
time (UTC)temp
F
wind
direction
speed
MPH
gust
MPH
rain 1hr
in
rain 24hr
in
rain mn
in
humidity
%
barometer
mb
20171211184801 66 41 0.0 1.0 0.00 0.00 0.00 89 1017.2
20171211184201 66 41 0.0 1.0 0.00 0.00 0.00 89 1017.1
20171211183601 66 0 0.0 0.0 0.00 0.00 0.00 89 1017.1
20171211183001 66 0 0.0 0.0 0.00 0.00 0.00 89 1017.2
20171211182401 66 0 0.0 0.0 0.00 0.00 0.00 89 1017.1
20171211181801 65 0 0.0 0.0 0.00 0.00 0.00 89 1017.1
20171211181201 65 0 0.0 0.0 0.00 0.00 0.00 89 1017.1
20171211180601 65 0 0.0 0.0 0.00 0.00 0.00 89 1017.1
20171211180001 65 0 0.0 0.0 0.00 0.00 0.00 89 1017.0
20171211175401 65 0 0.0 0.0 0.00 0.00 0.00 88 1017.0
20171211174802 65 0 0.0 0.0 0.00 0.00 0.00 88 1017.0
20171211174201 65 0 0.0 0.0 0.00 0.00 0.00 88 1016.9
20171211173601 65 0 0.0 0.0 0.00 0.00 0.00 88 1016.8
20171211173001 65 0 0.0 0.0 0.00 0.00 0.00 88 1016.9
20171211172401 65 0 0.0 0.0 0.00 0.00 0.00 87 1016.9
20171211171801 65 0 0.0 0.0 0.00 0.00 0.00 87 1016.9
20171211171201 65 0 0.0 0.0 0.00 0.00 0.00 87 1016.8
20171211170601 65 0 0.0 0.0 0.00 0.00 0.00 87 1016.9
20171211170001 65 0 0.0 0.0 0.00 0.00 0.00 87 1016.8
20171211165401 65 0 0.0 0.0 0.00 0.00 0.00 86 1016.8
20171211164801 65 0 0.0 0.0 0.00 0.00 0.00 86 1016.9
20171211164201 66 0 0.0 0.0 0.00 0.00 0.00 86 1016.9
20171211163601 66 161 0.0 2.0 0.00 0.00 0.00 87 1016.8
20171211163001 65 162 0.0 2.0 0.00 0.00 0.00 86 1016.8
20171211162401 65 0 0.0 0.0 0.00 0.00 0.00 87 1016.9
20171211161801 65 0 0.0 0.0 0.00 0.00 0.00 86 1016.9
20171211161201 65 0 0.0 0.0 0.00 0.00 0.00 86 1016.9
20171211160601 65 0 0.0 0.0 0.00 0.00 0.00 86 1016.9
20171211160001 65 169 0.0 1.0 0.00 0.00 0.00 86 1017.0
20171211155401 65 172 1.0 3.0 0.00 0.00 0.00 86 1017.1
20171211154801 65 174 1.0 3.0 0.00 0.00 0.00 86 1017.1
20171211154201 65 175 1.0 2.0 0.00 0.00 0.00 85 1017.1
20171211153601 65 182 1.0 3.0 0.00 0.00 0.00 85 1017.2
20171211153001 65 183 0.0 3.0 0.00 0.00 0.00 85 1017.2
20171211152401 65 166 0.0 1.0 0.00 0.00 0.00 85 1017.3
20171211151801 65 166 0.0 1.0 0.00 0.00 0.00 84 1017.3
20171211151201 65 0 0.0 0.0 0.00 0.00 0.00 84 1017.4
20171211150601 65 0 0.0 0.0 0.00 0.00 0.00 84 1017.3
20171211150001 65 0 0.0 0.0 0.00 0.00 0.00 84 1017.4
20171211145401 65 0 0.0 0.0 0.00 0.00 0.00 83 1017.4
20171211144801 65 0 0.0 0.0 0.00 0.00 0.00 83 1017.4
20171211144201 66 0 0.0 0.0 0.00 0.00 0.00 82 1017.5
20171211143601 66 0 0.0 0.0 0.00 0.00 0.00 82 1017.6
20171211143001 66 0 0.0 0.0 0.00 0.00 0.00 82 1017.6
20171211142401 66 0 0.0 0.0 0.00 0.00 0.00 81 1017.7
20171211141801 66 0 0.0 0.0 0.00 0.00 0.00 81 1017.7
20171211141202 67 0 0.0 0.0 0.00 0.00 0.00 81 1017.7
20171211140601 67 0 0.0 0.0 0.00 0.00 0.00 80 1017.7
20171211140002 67 0 0.0 0.0 0.00 0.00 0.00 80 1017.8
20171211135401 67 0 0.0 0.0 0.00 0.00 0.00 80 1017.8
20171211134801 67 0 0.0 0.0 0.00 0.00 0.00 79 1017.8
20171211134201 67 0 0.0 0.0 0.00 0.00 0.00 79 1017.8
20171211133601 68 0 0.0 0.0 0.00 0.00 0.00 78 1017.9
20171211133000 68 0 0.0 0.0 0.00 0.00 0.00 78 1018.0
20171211132401 68 0 0.0 0.0 0.00 0.00 0.00 77 1018.1
20171211131801 69 135 0.0 2.0 0.00 0.00 0.00 76 1018.1
20171211131202 69 135 0.0 2.0 0.00 0.00 0.00 75 1018.1
20171211130601 70 135 0.0 1.0 0.00 0.00 0.00 74 1018.1
20171211130001 70 135 0.0 1.0 0.00 0.00 0.00 72 1018.1
20171211125401 71 134 1.0 4.0 0.00 0.00 0.00 71 1018.1
20171211124801 71 128 1.0 4.0 0.00 0.00 0.00 71 1018.1
20171211124201 71 124 0.0 3.0 0.00 0.00 0.00 70 1018.0
20171211123601 71 106 0.0 1.0 0.00 0.00 0.00 70 1018.0
20171211123001 71 105 1.0 3.0 0.00 0.00 0.00 70 1018.0
20171211122402 72 102 1.0 4.0 0.00 0.00 0.00 69 1018.1
20171211121801 72 108 0.0 4.0 0.00 0.00 0.00 69 1018.1
20171211121201 72 102 0.0 4.0 0.00 0.00 0.00 69 1018.2
20171211120602 72 112 1.0 2.0 0.00 0.00 0.00 69 1018.2
20171211120002 72 125 2.0 5.0 0.00 0.00 0.00 69 1018.1
20171211115402 72 128 3.0 5.0 0.00 0.00 0.00 68 1018.1
20171211114801 72 129 3.0 7.0 0.00 0.00 0.00 68 1018.0
20171211114202 72 134 2.0 5.0 0.00 0.00 0.00 68 1018.1
20171211113602 73 123 2.0 6.0 0.00 0.00 0.00 67 1018.0
20171211113001 73 84 1.0 4.0 0.00 0.00 0.00 67 1017.8
20171211112401 73 68 1.0 4.0 0.00 0.00 0.00 67 1017.7
20171211111801 73 84 1.0 6.0 0.00 0.00 0.00 67 1017.7
20171211111201 73 90 1.0 6.0 0.00 0.00 0.00 66 1017.6
20171211110601 73 88 1.0 5.0 0.00 0.00 0.00 66 1017.6
20171211110001 74 74 1.0 4.0 0.00 0.00 0.00 65 1017.4
20171211105401 74 68 1.0 4.0 0.00 0.00 0.00 65 1017.3
20171211104801 74 75 1.0 4.0 0.00 0.00 0.00 65 1017.3
20171211104201 74 60 1.0 4.0 0.00 0.00 0.00 64 1017.2
20171211103601 74 63 1.0 3.0 0.00 0.00 0.00 64 1017.2
20171211103001 74 77 2.0 5.0 0.00 0.00 0.00 63 1017.2
20171211102401 74 62 2.0 5.0 0.00 0.00 0.00 63 1017.0
20171211101801 75 55 1.0 6.0 0.00 0.00 0.00 63 1016.9
20171211101201 75 86 2.0 7.0 0.00 0.00 0.00 62 1016.8
20171211100601 75 77 3.0 8.0 0.00 0.00 0.00 61 1016.7
20171211100001 75 71 3.0 9.0 0.00 0.00 0.00 61 1016.6
20171211095402 75 69 3.0 9.0 0.00 0.00 0.00 61 1016.6
20171211094801 76 68 2.0 7.0 0.00 0.00 0.00 60 1016.6
20171211094201 76 65 2.0 7.0 0.00 0.00 0.00 60 1016.5
20171211093602 76 63 3.0 7.0 0.00 0.00 0.00 59 1016.3
20171211093002 76 63 3.0 8.0 0.00 0.00 0.00 59 1016.2
20171211092402 76 61 3.0 7.0 0.00 0.00 0.00 58 1016.2
20171211091803 77 52 4.0 7.0 0.00 0.00 0.00 57 1016.0
20171211090601 77 39 4.0 8.0 0.00 0.00 0.00 55 1016.0
20171211090001 78 39 4.0 10.0 0.00 0.00 0.00 54 1015.9
20171211085402 78 42 3.0 9.0 0.00 0.00 0.00 53 1015.8
20171211084802 78 51 3.0 8.0 0.00 0.00 0.00 52 1015.6
20171211084202 79 54 2.0 8.0 0.00 0.00 0.00 51 1015.6
20171211083601 80 49 3.0 7.0 0.00 0.00 0.00 50 1015.4
20171211083001 80 53 2.0 7.0 0.00 0.00 0.00 49 1015.4
20171211082401 81 74 2.0 8.0 0.00 0.00 0.00 48 1015.3
20171211081801 81 78 2.0 8.0 0.00 0.00 0.00 47 1015.2
20171211081201 82 75 3.0 8.0 0.00 0.00 0.00 46 1015.0
20171211080601 82 76 3.0 8.0 0.00 0.00 0.00 46 1015.0
20171211080001 82 73 3.0 9.0 0.00 0.00 0.00 46 1014.9
20171211075401 83 72 3.0 9.0 0.00 0.00 0.00 45 1014.6
20171211074801 83 72 3.0 9.0 0.00 0.00 0.00 45 1014.6
20171211074201 83 79 3.0 10.0 0.00 0.00 0.00 45 1014.5
20171211073602 83 91 4.0 11.0 0.00 0.00 0.00 43 1014.3
20171211073002 84 93 4.0 11.0 0.00 0.00 0.00 43 1014.3
20171211072402 84 88 4.0 10.0 0.00 0.00 0.00 43 1014.1
20171211071801 84 77 4.0 12.0 0.00 0.00 0.00 42 1013.9
20171211071201 84 80 4.0 14.0 0.00 0.00 0.00 42 1013.9
20171211070601 84 90 4.0 14.0 0.00 0.00 0.00 41 1013.9
20171211070001 85 88 4.0 10.0 0.00 0.00 0.00 41 1013.8
20171211065401 85 98 4.0 10.0 0.00 0.00 0.00 39 1013.7
20171211064801 85 89 4.0 12.0 0.00 0.00 0.00 39 1013.6
20171211064201 85 83 5.0 12.0 0.00 0.00 0.00 39 1013.5
20171211063601 86 88 4.0 13.0 0.00 0.00 0.00 38 1013.5
20171211063002 87 90 4.0 11.0 0.00 0.00 0.00 37 1013.5
20171211062401 87 82 5.0 10.0 0.00 0.00 0.00 37 1013.3
20171211061801 87 68 7.0 13.0 0.00 0.00 0.00 37 1013.4
20171211061201 87 53 7.0 14.0 0.00 0.00 0.00 38 1013.3
20171211060601 87 48 6.0 14.0 0.00 0.00 0.00 37 1013.3
20171211060001 87 52 6.0 19.0 0.00 0.00 0.00 36 1013.3
20171211055401 88 63 6.0 19.0 0.00 0.00 0.00 37 1013.3
20171211054801 88 65 5.0 20.0 0.00 0.00 0.00 36 1013.3
20171211054201 89 70 6.0 16.0 0.00 0.00 0.00 36 1013.2
20171211053602 89 68 6.0 16.0 0.00 0.00 0.00 37 1013.3
20171211053001 89 64 6.0 14.0 0.00 0.00 0.00 36 1013.4
20171211052402 89 55 7.0 14.0 0.00 0.00 0.00 37 1013.2
20171211051802 89 54 9.0 15.0 0.00 0.00 0.00 37 1013.2
20171211051201 88 46 9.0 20.0 0.00 0.00 0.00 38 1013.2
20171211050601 88 47 7.0 19.0 0.00 0.00 0.00 39 1013.3
20171211050001 89 44 7.0 14.0 0.00 0.00 0.00 38 1013.4
20171211045401 89 51 7.0 15.0 0.00 0.00 0.00 38 1013.4
20171211044801 89 57 8.0 17.0 0.00 0.00 0.00 39 1013.4
20171211044201 89 54 8.0 17.0 0.00 0.00 0.00 39 1013.4
20171211043601 89 51 8.0 17.0 0.00 0.00 0.00 39 1013.4
20171211043001 89 46 6.0 17.0 0.00 0.00 0.00 39 1013.5
20171211042401 90 53 4.0 14.0 0.00 0.00 0.00 38 1013.6
20171211041801 91 87 5.0 10.0 0.00 0.00 0.00 36 1013.6
20171211041202 91 77 6.0 16.0 0.00 0.00 0.00 36 1013.5
20171211040601 90 72 5.0 16.0 0.00 0.00 0.00 35 1013.8
20171211040001 90 36 6.0 14.0 0.00 0.00 0.00 37 1013.9
20171211035401 89 340 6.0 14.0 0.00 0.00 0.00 35 1013.9
20171211034802 89 10 5.0 11.0 0.00 0.00 0.00 35 1014.0
20171211034202 90 56 4.0 10.0 0.00 0.00 0.00 34 1014.2
20171211033601 91 60 4.0 13.0 0.00 0.00 0.00 32 1014.2
20171211033001 91 74 3.0 13.0 0.00 0.00 0.00 32 1014.4
20171211032401 90 137 3.0 7.0 0.00 0.00 0.00 33 1014.5
20171211031802 91 100 5.0 12.0 0.00 0.00 0.00 31 1014.5
20171211031201 91 65 5.0 12.0 0.00 0.00 0.00 32 1014.5
20171211030601 89 27 5.0 12.0 0.00 0.00 0.00 33 1014.7
20171211030001 89 3 4.0 12.0 0.00 0.00 0.00 32 1014.7
20171211025401 90 346 4.0 12.0 0.00 0.00 0.00 32 1014.8
20171211024801 89 6 5.0 13.0 0.00 0.00 0.00 33 1014.9
20171211024201 89 26 4.0 13.0 0.00 0.00 0.00 33 1015.1
20171211023601 87 60 4.0 10.0 0.00 0.00 0.00 34 1015.2
20171211023001 87 66 5.0 11.0 0.00 0.00 0.00 32 1015.3
20171211022401 88 37 5.0 11.0 0.00 0.00 0.00 32 1015.6
20171211021802 88 7 5.0 13.0 0.00 0.00 0.00 32 1015.7
20171211021201 88 35 4.0 13.0 0.00 0.00 0.00 31 1015.8
20171211020601 87 58 5.0 9.0 0.00 0.00 0.00 33 1015.9
20171211020001 86 34 5.0 14.0 0.00 0.00 0.00 34 1016.1
20171211015401 87 16 5.0 14.0 0.00 0.00 0.00 33 1016.2
20171211014801 87 14 4.0 11.0 0.00 0.00 0.00 33 1016.2
20171211014201 86 40 5.0 10.0 0.00 0.00 0.00 34 1016.3
20171211013601 87 30 5.0 11.0 0.00 0.00 0.00 35 1016.5
20171211013001 86 4 5.0 11.0 0.00 0.00 0.00 34 1016.5
20171211012401 85 15 5.0 9.0 0.00 0.00 0.00 35 1016.7
20171211011801 85 21 3.0 11.0 0.00 0.00 0.00 36 1016.8
20171211011201 85 338 4.0 9.0 0.00 0.00 0.00 34 1016.9
20171211010601 85 332 5.0 9.0 0.00 0.00 0.00 35 1017.0
20171211010002 85 17 4.0 11.0 0.00 0.00 0.00 35 1017.1
20171211005402 83 44 5.0 10.0 0.00 0.00 0.00 36 1017.3
20171211004802 84 41 5.0 12.0 0.00 0.00 0.00 35 1017.4
20171211004202 84 22 5.0 12.0 0.00 0.00 0.00 36 1017.6
20171211003602 83 359 5.0 12.0 0.00 0.00 0.00 35 1017.6
20171211003002 84 23 4.0 10.0 0.00 0.00 0.00 37 1017.7
20171211002401 83 6 5.0 11.0 0.00 0.00 0.00 37 1017.7
20171211001802 83 20 5.0 11.0 0.00 0.00 0.00 37 1017.8
20171211001202 81 11 5.0 13.0 0.00 0.00 0.00 39 1018.0
20171211000602 81 358 5.0 10.0 0.00 0.00 0.00 39 1018.1
20171211000001 81 12 5.0 11.0 0.00 0.00 0.00 39 1018.1
20171210235402 81 14 4.0 12.0 0.00 0.00 0.00 39 1018.2
20171210234801 82 11 4.0 12.0 0.00 0.00 0.00 39 1018.4
20171210234202 81 3 5.0 11.0 0.00 0.00 0.00 38 1018.3
20171210233602 80 355 4.0 11.0 0.00 0.00 0.00 41 1018.3
20171210233002 81 5 4.0 8.0 0.00 0.00 0.00 42 1018.4
20171210232401 80 14 5.0 9.0 0.00 0.00 0.00 45 1018.6
20171210231801 79 1 4.0 11.0 0.00 0.00 0.00 45 1018.6
20171210231201 79 12 3.0 11.0 0.00 0.00 0.00 47 1018.6
20171210230601 79 11 3.0 9.0 0.00 0.00 0.00 49 1018.7
20171210230001 78 345 3.0 7.0 0.00 0.00 0.00 51 1018.9
20171210225401 77 357 3.0 8.0 0.00 0.00 0.00 53 1018.9
20171210224801 76 16 3.0 8.0 0.00 0.00 0.00 56 1019.1
20171210224201 76 38 4.0 7.0 0.00 0.00 0.00 58 1019.1
20171210223601 75 16 4.0 8.0 0.00 0.00 0.00 58 1019.2
20171210223001 75 7 3.0 9.0 0.00 0.00 0.00 60 1019.2
20171210222401 74 18 3.0 6.0 0.00 0.00 0.00 62 1019.2
20171210221801 74 10 3.0 7.0 0.00 0.00 0.00 64 1019.3
20171210221201 74 8 2.0 7.0 0.00 0.00 0.00 65 1019.2
20171210220601 74 9 2.0 7.0 0.00 0.00 0.00 66 1019.3
20171210220001 73 34 2.0 7.0 0.00 0.00 0.00 67 1019.4
20171210215401 73 11 1.0 7.0 0.00 0.00 0.00 67 1019.5
20171210214802 73 4 1.0 4.0 0.00 0.00 0.00 70 1019.5
20171210214201 72 68 1.0 2.0 0.00 0.00 0.00 71 1019.5
20171210213601 71 132 1.0 2.0 0.00 0.00 0.00 74 1019.6
20171210213002 71 115 1.0 2.0 0.00 0.00 0.00 74 1019.7
20171210212402 70 70 1.0 2.0 0.00 0.00 0.00 76 1019.8
20171210211802 69 38 1.0 4.0 0.00 0.00 0.00 78 1019.8
20171210211201 69 19 1.0 4.0 0.00 0.00 0.00 80 1019.7
20171210210601 68 51 1.0 3.0 0.00 0.00 0.00 80 1019.6
20171210210002 68 35 1.0 3.0 0.00 0.00 0.00 82 1019.6
20171210205401 67 32 0.0 3.0 0.00 0.00 0.00 82 1019.6
20171210204802 67 0 0.0 0.0 0.00 0.00 0.00 83 1019.6
20171210204202 67 0 0.0 0.0 0.00 0.00 0.00 84 1019.4
20171210203602 66 0 0.0 0.0 0.00 0.00 0.00 86 1019.4
20171210203002 65 0 0.0 0.0 0.00 0.00 0.00 87 1019.4
20171210202402 64 0 0.0 0.0 0.00 0.00 0.00 88 1019.4
20171210201802 64 0 0.0 0.0 0.00 0.00 0.00 91 1019.4
20171210201202 63 0 0.0 0.0 0.00 0.00 0.00 92 1019.4
20171210200601 62 0 0.0 0.0 0.00 0.00 0.00 92 1019.4
20171210200001 61 0 0.0 0.0 0.00 0.00 0.00 93 1019.2
20171210195402 61 0 0.0 0.0 0.00 0.00 0.00 93 1019.1
20171210194801 60 0 0.0 0.0 0.00 0.00 0.00 93 1019.1
20171210194201 60 0 0.0 0.0 0.00 0.00 0.00 93 1019.1
20171210193601 60 0 0.0 0.0 0.00 0.00 0.00 93 1018.9
20171210193002 60 0 0.0 0.0 0.00 0.00 0.00 93 1019.0
20171210192401 60 0 0.0 0.0 0.00 0.00 0.00 93 1019.0
20171210191802 59 0 0.0 0.0 0.00 0.00 0.00 93 1019.0
20171210191202 59 0 0.0 0.0 0.00 0.00 0.00 93 1019.0
20171210190602 59 0 0.0 0.0 0.00 0.00 0.00 93 1018.9
20171210190002 59 0 0.0 0.0 0.00 0.00 0.00 93 1019.0
20171210185401 59 0 0.0 0.0 0.00 0.00 0.00 93 1018.9